www.pogodaiklimat.ru

Погода и климат >> Архив погоды >> Россия >> Краснодарский край >> Горячий Ключ


ПОГОДА в Горячем Ключе

  • Прогноз погоды в Горячем Ключе
  • Монитор погоды в Горячем Ключе

АРХИВ ПОГОДЫ в Горячем Ключе

Время (UTC), дата Ветер
(напр.,м/с)
 
Видим.   Явления Облачность Т
(С)
Тd
(С)
f
(%)
Тe
(С)
Тes
(С)
Комфортность P
(гПа)
Po
(гПа)
Тmin
(С)
Tmax
(С)
R
(мм)
R24
(мм)
S
(см)
15 16.01 С 1 20 км 10/4 600 м
[Cb calv Ac und]
+0.4 -3.9 73 -1 -1 1011.6 1003.8 +11.5 3
18 16.01 штиль 0 20 км 10/5 600 м
[Cb calv Ac und]
+0.1 -2.9 80 -1 -1 1012.3 1004.5
21 16.01 штиль 0 20 км 10/3 600 м
[Cb calv Ac und]
-0.9 -2.7 88 -2 -2 1012.5 1004.7
00 17.01 штиль 0 20 км 10/4 600 м
[Cb calv Ac und]
-1.8 -2.7 94 -3 -3 1013.3 1005.4
03 17.01 штиль 0 20 км 6/3 600 м
[Cb calv Ac trans Ci ing]
-1.9 -2.7 94 -3 -3 1014.3 1006.5 -2.0
06 17.01 штиль 0 20 км 1/0
[Ci fib]
-2.5 -3.4 94 -4 -3 1016.2 1008.3 -3.2
09 17.01 СЗ 1 20 км 1/0
[Ci fib]
+3.9 -4.2 55 +3 +8 1017.0 1009.3
12 17.01 С 1 20 км 1/0
[Ci fib]
+6.1 -5.4 43 +6 +8 1017.6 1009.9
15 17.01 штиль 0 20 км ясно +0.9 -3.3 73 0 0 1019.8 1012.0 +6.3
18 17.01 штиль 0 20 км ясно -2.0 -4.1 86 -3 -3 1021.4 1013.5
21 17.01 штиль 0 20 км ясно -3.3 -4.7 90 -4 -4 1022.4 1014.4
00 18.01 З 1 20 км ясно -2.5 -4.2 88 -5 -5 1023.1 1015.1
03 18.01 штиль 0 20 км ясно -3.6 -4.8 91 -5 -5 1022.5 1014.5 -3.7
06 18.01 С 1 20 км 1/1 1000 м
[Cu med, cong]
-2.4 -3.6 91 -5 -4 1022.8 1014.8
09 18.01 ЮЗ 2
{10}
20 км 1/1 1000 м
[Cu med, cong]
+8.6 -1.0 51 +7 +11 1022.1 1014.4
12 18.01 ЮЗ 3
{13}
20 км 5/4 600 м
[Cb calv Ci fib]
+7.8 -0.1 57 +5 +6 1021.1 1013.4
15 18.01 Ю 2
{10}
20 км 3/1 600 м
[Cb calv Ci fib]
+6.6 -0.4 61 +5 +5 1021.1 1013.4 +9.0
18 18.01 Ю 1
{10}
20 км 1/0
[Ci fib]
+6.4 -0.6 61 +6 +6 1021.1 1013.4
21 18.01 ЮЗ 2 20 км 3/0
[Ci fib]
+6.4 -0.6 61 +4 +4 1020.6 1012.9
00 19.01 Ю 2 20 км 9/0
[Cs]
+6.4 -0.4 62 +4 +4 1019.8 1012.1
03 19.01 Ю 1 20 км ясно +6.2 -0.1 64 +5 +5 1019.6 1012.0 +5.9
06 19.01 Ю 3 20 км 8/0
[Cs]
+6.9 +0.1 62 +4 +5 1019.7 1012.1
09 19.01 ЮЗ 3 20 км 8/3 1000 м
[Cu med, cong Cs]
+9.2 +0.6 55 +7 +9 1020.2 1012.6
12 19.01 Ю 3
{11}
20 км 9/4 600 м
[Cb calv Cs]
+8.8 +0.4 56 +7 +7 1019.6 1011.9
15 19.01 Ю 3 20 км 9/4 600 м
[Cb calv Cs]
+7.9 +1.3 63 +5 +5 1019.6 1012.0 +9.6
18 19.01 Ю 3-10
{11}
20 км 9/4 600 м
[Cb calv Cs]
+8.4 +1.4 61 +6 +6 1020.1 1012.5
21 19.01 ЮЗ 1
{10}
20 км 9/5 600 м
[Cb calv Cs]
+7.8 +2.7 70 +7 +7 1021.5 1013.9
00 20.01 З 1 4000 м слаб. ливневой дождь 10/10 600 м
[Cb cap]
+3.5 +2.1 91 +2 +2 1023.8 1016.1
03 20.01 штиль 0 4000 м слаб. ливневой дождь 10/10 600 м
[Cb cap]
+1.8 +0.8 93 +1 +1 1024.8 1017.0 +1.8 6
06 20.01 штиль 0 20 км в посл. час ливневой дождь 10/9 600 м
[Cb calv Ac und]
+1.8 +1.1 95 +1 +1 1025.2 1017.4 +1.6
09 20.01 штиль 0 4000 м слаб. дождь 10/10 600 м
[Frnb]
+1.7 +1.0 95 0 0 1025.3 1017.4
12 20.01 штиль 0 10 км слаб. дождь 10/10 300 м
[Frnb Ns]
+2.4 +1.6 94 +1 +1 1024.0 1016.2
15 20.01 штиль 0 20 км в посл. час дождь 10/10 600 м
[Sc]
+2.7 +1.9 94 +1 +1 1023.4 1015.6 +2.7 2
18 20.01 штиль 0 2000 м дымка {дождь} 10/10 600 м
[Sc]
+2.1 +1.5 96 +1 +1 1022.7 1014.9
21 20.01 штиль 0 2000 м дымка {туман} 10/5 600 м
[Sc Ac und]
+1.2 +0.9 98 -0 -0 1022.5 1014.6
00 21.01 штиль 0 20 км {туман} 9/3 600 м
[Sc Ac trans Cc]
+1.5 +1.2 98 0 0 1020.9 1013.0
03 21.01 СЗ 1 20 км 8/1 600 м
[Sc Ac trans Cc]
+1.1 +0.8 98 -1 -1 1019.0 1011.2 +0.9
06 21.01 штиль 0 4000 м дымка 6/3 600 м
[Sc Ac lent Cc]
+0.5 +0.2 98 -1 -0 1017.5 1009.7 +0.2
09 21.01 ЮЗ 4
{12}
20 км 8/3 600 м
[Cu hum Ac lent Ci]
+11.6 -0.8 42 +10 +11 1015.9 1008.4
12 21.01 ЮЗ 4
{16}
20 км 9/6 600 м
[Cb calv Ac lent Ci ing]
+11.8 -2.3 37 +10 +10 1014.9 1007.4
15 21.01 Ю 3
{10}
20 км 9/6 600 м
[Cb calv Ac cuf Ci ing]
+10.9 -2.2 40 +10 +10 1014.4 1006.8 +13.1
18 21.01 Ю 4-10
{14}
20 км 9/8 600 м
[Cb calv Ac cuf Ci ing]
+9.7 +0.2 52 +7 +7 1014.9 1007.4
21 21.01 Ю 2
{12}
10 км слаб. ливневой дождь 9/8 600 м
[Cb cap Ac cuf Ci ing]
+6.3 +3.0 79 +4 +4 1015.6 1008.0
00 22.01 штиль 0 10 км слаб. ливневой дождь 10/10 600 м
[Cb cap]
+5.6 +4.8 95 +4 +4 1016.8 1009.1
03 22.01 З 1 10 км слаб. ливневой дождь 10/10 600 м
[Cb cap]
+3.5 +2.4 92 +2 +2 1017.7 1009.9 +3.5 12
06 22.01 СЗ 2 20 км в посл. час ливневой дождь 10/8 600 м
[Cb calv Ac und]
+2.8 +2.1 95 -1 -0 1019.3 1011.5 +2.8
09 22.01 С 1 4000 м слаб. морось 10/10 300 м
[St]
+1.5 +0.7 94 -0 -0 1021.3 1013.5
12 22.01 С 1 500 м слаб. морось 10/10 300 м
[St]
+0.4 -0.2 96 -2 -2 1021.7 1013.9
15 22.01 С 1 4000 м дымка 10/10 300 м
[St]
+0.2 -0.4 96 -2 -2 1022.3 1014.4 +3.5 0.3
18 22.01 штиль 0 4000 м дымка 10/10 300 м
[St]
+0.2 -0.6 94 -1 -1 1022.2 1014.3
21 22.01 штиль 0 4000 м дымка 10/10 300 м
[St]
0.0 -0.8 94 -1 -1 1021.9 1014.0
00 23.01 штиль 0 4000 м дымка 10/10 300 м
[St]
+0.2 -0.5 95 -1 -1 1020.8 1013.0
03 23.01 штиль 0 4000 м дымка 10/10 300 м
[St]
+0.5 -0.2 95 -1 -1 1019.5 1011.7 -0.0
06 23.01 штиль 0 4000 м дымка 9/8 600 м
[Sc Ac trans]
+0.8 +0.1 95 -1 -0 1019.1 1011.3
09 23.01 В 1 20 км 5/4 600 м
[Cu med, cong Ac trans]
+5.2 +1.2 75 +4 +7 1018.1 1010.4

 

Местоположение метеостанции Горячий Ключ (Краснодарский край, Россия): широта 44.63 долгота 39.10 высота над уровнем моря 62 м.

В архиве по умолчанию представлена погода в Горячем Ключе за последнюю неделю. Архивные данные за месяц целиком и за предыдущие месяцы, начиная с января 2011 года, Вы можете получить, выбрав интересующий диапазон дат из раскрывающегося списка и нажав кнопку "Ввод!".


*Определитесь, кто Вы:
робот инопланетянин человек

Внимание! Время в таблицах - всемирное. Для получения местного времени необходимо прибавить поправку, которая равна 3 ч.

Смотрите также архив погоды в соседних городах и на ближайших метеорологических станциях:

Погода в Горном (Краснодарский край, Россия) (41 км)
Погода в Джубге (Краснодарский край, Россия) (45 км)
Погода в Краснодаре (Краснодарский край, Россия) (47 км)
Погода в Туапсе (Краснодарский край, Россия) (59 км)
Погода в Белореченске (Краснодарский край, Россия) (65 км)
Погода в Магри (Краснодарский край, Россия) (68 км)
Погода в Майкопе (Адыгея, Россия) (78 км)
Погода в Геленджике (Краснодарский край, Россия) (81 км)
Погода в Шунтуке (Адыгея, Россия) (83 км)
Погода в Усть-Лабинске (Краснодарский край, Россия) (83 км)

Пояснения к столбцам:

Ветер - указаны скорость ветра в м/с - средняя за 10 мин, порывы в срок и между сроками (в фигурных скобках) и направление, откуда дует ветер: С - северный, СВ - северо-восточный, В - восточный, ЮВ - юго-восточный, Ю - южный, ЮЗ - юго-западный, З - западный, СЗ - северо-западный.
Видимость - горизонтальная дальность видимости в метрах или километрах. При видимости от 1 до 10 км при отсутствии осадков обычно наблюдается дымка, при ухудшении видимости до 1 км и менее - туман. В сухую погоду видимость может ухудшаться дымом, пылью или мглою.
Явления - указаны атмосферные явления, наблюдавшиеся в срок или в последний час перед сроком; фигурными скобками обозначены явления, наблюдавшиеся между сроками (за 1-3 часа до срока); квадратными скобками обозначены град или гололедные отложения с указанием их диаметра в мм.
Облачность - указаны через наклонную черту общая и нижняя облачность в баллах и высота нижней границы облаков в метрах; квадратными скобками обозначены формы облаков: Ci - перистые, Cs - перисто-слоистые, Cc - перисто-кучевые, Ac - высококучевые, As - высокослоистые, Sc - слоисто-кучевые, Ns - слоисто-дождевые, Cu - кучевые, Cb - кучево-дождевые. Подробнее классификацию облаков см. в Атласе облаков (PDF).
T - Температура воздуха - температура, измеренная на высоте 2 м над землей.
Td - Температура точки росы - температура, при понижении до которой содержащийся в воздухе водяной пар достигнет насыщения.
f - Относительная влажность воздуха - влажноcть воздуха, измеренная на высоте 2 м над землей.
Te - Эффективная температура - температура, которую ощущает одетый по сезону человек в тени. Характеристика душности погоды. При расчете учитывается влияние влажности воздуха и скорости ветра на теплоощущения человека.
Tes - Эффективная температура на солнце - температура, которую ощущает человек, с поправкой на солнечный нагрев. Характеристика знойности погоды. Зависит от высоты солнца над горизонтом, облачности и скорости ветра. Ночью, в пасмурную погоду, а также при ветре 12 м/с и более поправка равна нулю.
P - Атмосферное давление - приведенное к уровню моря атмосферное давление.
Po - Атмосферное давление - измеренное на уровне метеостанции атмосферное давление.
Tmin - Минимальная температура - минимум температуры воздуха на высоте 2 м над землей.
Tmax - Максимальная температура - максимум температуры воздуха на высоте 2 м над землей.
R - Количество осадков - Количество выпавших осадков за период времени, мм. При наведении курсора мыши на число - период времени, за который выпало указанное количество осадков.
R24 - Количество осадков - Количество выпавших осадков за 24 часа, мм.
S - Снежный покров - Высота снежного покрова, см. При наведении курсора мыши на число - состояние снежного покрова и степень покрытия местности в баллах.